Weather in Bonnyville

Canada     54°16′02″N   110°43′45″W
temp.,
°C
wind,
m/s
gust,
m/s
humid.,
%
clouds,
%
prec.,
mm/h
press.,
hPa
HPBL,
m
25 january, mon
mon2523:00−30ese359288 0.0 1031112
02:00−31ese349283 0.0 103286
05:00−32ese349364 0.0 103371
08:00−32ese339350 0.0 103453
11:00−28ese369140 0.0 1034262
14:00−23se368940 0.0 1032343
17:00−26se349019 0.0 103365
20:00−28ese349035 0.0 103374
26 january, tue
tue2623:00−27se379064 0.0 1032219
02:00−27ese388999 0.0 1032260
05:00−25ese488899 0.0 1030279
08:00−25ese379098 0.0 1030275
11:00−23se488799 0.0 1029354
14:00−20se5885100 0.0 1028416
17:00−21ese4989100 0.0 1027369
20:00−21se4892100 0.0 1028393
27 january, wed
wed2723:00−21se4797100 0.3 1028377
02:00−21se4798100 0.6 1028349
05:00−21se2696100 0.8 1028298
08:00−23se349799 0.1 102890
11:00−21se359599 0.1 1028305
14:00−18se2491100 0.1 1027402
17:00−19ese3497100 0.1 1025117
20:00−20se2397100 0.1 1025112
28 january, thu
thu2823:00−20e2497100 0.1 1025196
02:00−19e2398100 0.6 1023229
05:00−19ene2298100 1.3 102392
08:00−19e1298100 0.6 102387
11:00−18sse019593 0.8 1023142
14:00−17nnw118991 0.0 1022307
17:00−19sw119496 0.0 102220
20:00−21wsw1195100 0.0 102220
29 january, fri
fri2923:00−23wsw129786 0.0 102220
02:00−24sw119736 0.0 102120
05:00−25s119752 0.0 102120
08:00−26s119726 0.0 102120
11:00−21s119262 0.0 1019115
14:00−18s018988 0.0 1017239
17:00−20e119790 0.0 101720
20:00−22sse119785 0.0 101820